Location: *
(48.7358°N, 0.3111°E)
Time: 23:37:42
(UTC+00:00)

RESURS DK-1 - Pass Details

Date: 22 October 2019
Orbit: 558 x 560 km, 69.9° (Epoch: 17 November)

Event Time Altitude Azimuth Distance (km) Brightness Sun altitude
Exits shadow 03:44:15 21° 139° (SE) 1,299 4.4 -27.6°
Maximum altitude 03:45:40 25° 108° (ESE) 1,151 4.4 -27.4°
Drops below altitude 10° 03:49:04 10° 53° (NE) 1,852 5.8 -26.9°
Sets 03:51:33 0° 40° (NE) 2,753 6.7 -26.5°
